Location: Casalecchio di Reno
(44.4760°N, 11.2757°E)
Time: 18:01:57
(UTC+02:00)

DX 1 - Pass Details

Date: 26 June 2024
Orbit: 607 x 619 km, 98.3° (Epoch: 19 July)

Event Time Altitude Azimuth Distance (km) Brightness Sun altitude
Rises 00:27:31 0° 27° (NNE) 2,876 ? -21.2°
Reaches altitude 10° 00:30:09 10° 44° (NE) 1,967 ? -21.3°
Maximum altitude 00:33:25 21° 94° (E) 1,374 ? -21.4°
Enters shadow 00:33:26 21° 94° (E) 1,374 ? -21.4°
